Aérodrome :
LOGIN :

S'inscrire | Disclaimer

   EN    FR    IT 

 










Légende :    VFR   VFR Marginal   IFR   IFR Intensif   IFR Très Intensif
Visi : 
Plafond : 
>= 8 km
>= 3000ft
5 à 8 km
1000 à 3000 ft
1500m à 5 km
500 à 1000 ft
800 à 1500m
200 à 500 ft
< 800m
< 200 ft
Symboles :   Orages  Brouillard  Fortes neiges  Fortes précipitations  Vent > 20 kt
SIGMETs :   Divers  Orages  Givrage  Turbulence  Onde Orograph.  Cendres Volcan.







- Altitude de l'aérodrome : 1106 ft
- Voir les cartes d'approche


LFSO - Nancy / Ochey

DERNIER METAR :
  • 210030Z AUTO 17003KT CAVOK 13/09 Q1025

METARs EXPIRÉS :
  • 210000Z AUTO 19003KT CAVOK 12/09 Q1025
  • 202330Z AUTO VRB01KT CAVOK 11/09 Q1025
  • 202300Z AUTO 19002KT CAVOK 12/09 Q1025
  • 202230Z AUTO 21003KT CAVOK 12/09 Q1025
  • 202200Z AUTO 20002KT CAVOK 12/09 Q1026

Prévision TAF périmée.
Pas de NOTAMs connus pour ce terrain.



MET'MAP, la Météo Aéronautique d'un coup d'oeil ! - Copyright ORBIFLY Décembre 2007 - Disclaimer

ORBIFLY MET'MAP TEAM :

Programmation & Développement : Alexandra Zaïnal
Conception & Développement : Baudouin d'Aumeries
Co-Programmation & Développement : Marc-Olivier Méhu
Soutien technique & logistique : Manuel Goepfert

Contact : metmap@orbifly.com




SOURCES & CREDITS :

   NOAA